[[{"header":{"parameterUnit":"m.s-1","parameterCategory":1,"la1":30.2991,"la2":30.254,"lo1":-89.0895,"lo2":-89.0444,"dy":0.0017,"dx":0.0017,"nx":28,"ny":28,"refTime":"2023-11-03T21:00:00:Z","depth":0,"parameterNumber":2,"parameterNumberName":"U-component_of_WINDS"},"data":[0,0,0,0,0,0,0,0,0,0,0,0,0,0,0,0,0,0,0,0,0,0,0,0,0,0,0,0,0,0,0,0,0,0,0,0,0,0,0,0,0,0,0,0,0,0,0,0,0,0,0,0,0,0,0,0,0,0,-0.5615,-0.5615,0,-0.5612,-0.5612,-0.5612,-0.559,-0.5589,-0.5589,-0.5588,-0.5587,-0.5587,-0.5588,0,0,0,0,0,0,0,0,0,0,0,0,0,-0.5601,-0.5602,-0.5615,-0.5615,-0.5615,-0.5612,-0.5612,-0.5612,-0.559,-0.5589,-0.5589,-0.5588,-0.5586,-0.5587,-0.5588,0,0,0,0,0,0,0,0,0,0,0,0,0,-0.5604,-0.5602,-0.5615,-0.5603,-0.5602,-0.5612,-0.5612,-0.5612,-0.559,-0.5589,-0.5589,-0.5588,-0.5586,-0.5587,-0.5588,-0.5609,0,0,-0.559,-0.559,0,0,0,0,0,0,0,0,-0.5604,-0.5604,-0.5605,-0.5604,-0.5603,-0.5601,-0.5607,-0.5611,-0.559,-0.5595,-0.5588,-0.5587,-0.5592,-0.5592,-0.5594,-0.5609,-0.5608,-0.559,-0.559,-0.5591,-0.5591,0,0,0,0,0,0,0,-0.5604,-0.5604,-0.5614,-0.5605,-0.5604,-0.5599,-0.5598,-0.5608,-0.5598,-0.5594,-0.5593,-0.5593,-0.5591,-0.5593,-0.5593,-0.5608,-0.559,-0.5591,-0.5591,-0.5591,-0.5641,-0.5642,0,0,0,0,0,0,-0.5605,-0.5604,-0.5614,-0.5614,-0.5601,-0.56,-0.5599,-0.5602,-0.5598,-0.5597,-0.5593,-0.5592,-0.5592,-0.5593,-0.5593,-0.5619,-0.5591,-0.5591,-0.5592,-0.564,-0.5642,-0.5643,0,0,0,0,0,0,-0.5605,-0.5606,-0.5614,-0.5609,-0.5609,-0.5601,-0.5605,-0.5603,-0.5604,-0.5597,-0.5596,-0.5597,-0.5591,-0.5592,-0.5605,-0.5618,-0.5592,-0.5592,-0.5639,-0.5641,-0.5642,-0.5669,0,0,0,0,0,0,-0.5604,-0.5606,-0.5614,-0.5609,-0.561,-0.5626,-0.5605,-0.5603,-0.5605,-0.5603,-0.56,-0.5599,-0.5591,-0.5604,-0.5606,-0.5619,-0.5593,-0.5638,-0.564,-0.5642,-0.5667,-0.5671,-0.5675,0,0,0,0,0,-0.5604,-0.5621,-0.5614,-0.5616,-0.5619,-0.5627,-0.5627,-0.5618,-0.5606,-0.5615,-0.561,-0.5599,-0.5616,-0.5606,-0.5607,-0.5621,-0.5637,-0.564,-0.5642,-0.5665,-0.567,-0.5675,0,0,0,0,0,0,-0.5629,-0.5621,-0.5613,-0.5629,-0.5629,-0.5623,-0.5633,-0.5623,-0.5626,-0.5624,-0.5612,-0.5611,-0.5627,-0.5624,-0.5613,-0.5641,-0.5625,-0.5627,-0.5642,-0.5647,-0.5651,-0.5652,-0.5593,0,0,0,0,0,-0.5636,-0.5642,-0.5635,-0.565,-0.565,-0.5642,-0.5644,-0.5637,-0.5636,-0.5636,-0.5633,-0.5633,-0.5638,-0.5642,-0.5647,-0.5666,-0.5665,-0.5676,-0.5679,-0.5683,-0.5686,-0.5697,-0.5702,-0.5649,-0.5649,-0.5649,0,0,-0.5651,-0.5647,-0.5652,-0.5655,-0.5654,-0.5662,-0.5642,-0.565,-0.5656,-0.5638,-0.565,-0.5647,-0.5646,-0.5663,-0.567,-0.5662,-0.57,-0.5685,-0.5688,-0.5689,-0.5699,-0.5704,-0.5709,-0.5651,-0.565,-0.565,0,0,-0.5683,-0.568,-0.5693,-0.5692,-0.5691,-0.5685,-0.5688,-0.5683,-0.5681,-0.5693,-0.5679,-0.5686,-0.5695,-0.5696,-0.5697,-0.5728,-0.5719,-0.573,-0.5751,-0.5762,-0.5766,-0.577,-0.5783,-0.5787,-0.5733,-0.5733,-0.5733,0,-0.5703,-0.5713,-0.5701,-0.5711,-0.5713,-0.5696,-0.5709,-0.5709,-0.5709,-0.5711,-0.5701,-0.5713,-0.5711,-0.5728,-0.5736,-0.5737,-0.5741,-0.5732,-0.5766,-0.577,-0.5773,-0.5785,-0.579,-0.5734,-0.5734,-0.5734,-0.5734,0,-0.5738,-0.5745,-0.5756,-0.5757,-0.5759,-0.5771,-0.5761,-0.5765,-0.5757,-0.5752,-0.5765,-0.5762,-0.5766,-0.5769,-0.5761,-0.5785,-0.578,-0.5768,-0.5752,-0.578,-0.5791,-0.5796,-0.5736,-0.5736,-0.5735,-0.5735,0,0,-0.5787,-0.578,-0.5785,-0.5785,-0.5781,-0.5787,-0.5798,-0.5802,-0.5806,-0.5806,-0.5816,-0.5824,-0.5813,-0.5815,-0.5807,-0.5816,-0.5843,-0.5804,-0.5803,-0.5813,-0.5871,-0.5881,-0.5886,-0.5836,-0.5836,-0.5837,-0.5871,0,-0.5819,-0.5838,-0.5827,-0.5847,-0.5854,-0.5838,-0.5847,-0.5846,-0.5841,-0.5847,-0.5842,-0.5849,-0.5833,-0.5834,-0.5843,-0.5838,-0.5855,-0.5835,-0.5846,-0.5846,-0.5849,-0.5892,-0.5903,-0.5935,-0.5875,-0.5876,-0.5877,0,-0.586,-0.5862,-0.5883,-0.5878,-0.5881,-0.589,-0.5893,-0.5898,-0.5897,-0.5892,-0.5894,-0.5884,-0.5894,-0.5877,-0.5892,-0.5879,-0.5882,-0.588,-0.5881,-0.5884,-0.5865,-0.5897,-0.5945,-0.5951,-0.5883,-0.5883,-0.5882,0,-0.5896,-0.5904,-0.5918,-0.5918,-0.5913,-0.5919,-0.5918,-0.5915,-0.5918,-0.592,-0.5922,-0.5926,-0.5928,-0.5931,-0.5922,-0.591,-0.5939,-0.592,-0.5937,-0.5937,-0.5946,-0.5946,-0.5997,-0.5944,-0.5944,-0.5944,-0.5944,0,-0.5935,-0.5949,-0.5934,-0.5943,-0.5958,-0.5945,-0.596,-0.5956,-0.5954,-0.5962,-0.5947,-0.5955,-0.5942,-0.5948,-0.5941,-0.5956,-0.5956,-0.5954,-0.5952,-0.5957,-0.5957,-0.596,-0.5959,-0.5945,-0.5945,-0.5945,-0.5945,0,-0.5979,-0.5969,-0.5983,-0.5977,-0.5975,-0.5987,-0.5982,-0.599,-0.5983,-0.5994,-0.5995,-0.5986,-0.5993,-0.5984,-0.5989,-0.5985,-0.6005,-0.5999,-0.6006,-0.6005,-0.6023,-0.6022,-0.608,-0.6087,-0.6028,-0.6028,-0.6029,0,-0.6005,-0.6015,-0.601,-0.6014,-0.6013,-0.602,-0.6023,-0.601,-0.6014,-0.6013,-0.6021,-0.6027,-0.6031,-0.6043,-0.6037,-0.6042,-0.6037,-0.6056,-0.6038,-0.6042,-0.604,-0.604,-0.6042,-0.6061,-0.6062,-0.6063,-0.6063,0,-0.6054,-0.6048,-0.6053,-0.6056,-0.606,-0.6062,-0.6063,-0.6067,-0.6054,-0.6059,-0.6066,-0.6069,-0.6075,-0.6081,-0.6084,-0.6082,-0.6071,-0.6069,-0.6073,-0.6079,-0.6083,-0.6083,-0.6019,-0.6068,-0.6067,-0.6067,-0.6067,-0.6067,-0.6091,-0.61,-0.6098,-0.6103,-0.6102,-0.6104,-0.6111,-0.6105,-0.6111,-0.6115,-0.6107,-0.6116,-0.6114,-0.6117,-0.6116,-0.6124,-0.6115,-0.6121,-0.6123,-0.6126,-0.6129,-0.608,-0.6124,-0.6124,-0.6124,-0.6123,-0.6123,0,-0.6141,-0.6138,-0.6143,-0.6145,-0.615,-0.6137,-0.6137,-0.6143,-0.6151,-0.615,-0.6154,-0.6162,-0.6168,-0.6162,-0.6167,-0.6174,-0.6169,-0.6176,-0.6176,-0.6177,-0.6136,-0.6132,-0.618,-0.618,-0.618,-0.618,-0.618,-0.618,-0.6167,-0.6182,-0.6176,-0.619,-0.6187,-0.6196,-0.6198,-0.6199,-0.6198,-0.6208,-0.6213,-0.6208,-0.6206,-0.621,-0.6215,-0.6213,-0.6216,-0.6226,-0.6222,-0.6185,-0.6179,-0.6174,-0.6171,-0.6226,-0.6226,-0.6263,-0.6263,-0.6263]},{"header":{"parameterUnit":"m.s-1","parameterCategory":1,"la1":30.2991,"la2":30.254,"lo1":-89.0895,"lo2":-89.0444,"dy":0.0017,"dx":0.0017,"nx":28,"ny":28,"refTime":"2023-11-03T21:00:00:Z","depth":0,"parameterNumber":3,"parameterNumberName":"V-component_of_WINDS"},"data":[0,0,0,0,0,0,0,0,0,0,0,0,0,0,0,0,0,0,0,0,0,0,0,0,0,0,0,0,0,0,0,0,0,0,0,0,0,0,0,0,0,0,0,0,0,0,0,0,0,0,0,0,0,0,0,0,0,0,-0.028,-0.0281,0,-0.0381,-0.0382,-0.0383,-0.0454,-0.0454,-0.0455,-0.0455,-0.0558,-0.056,-0.0562,0,0,0,0,0,0,0,0,0,0,0,0,0,-0.0147,-0.0149,-0.028,-0.0282,-0.0283,-0.0381,-0.0382,-0.0384,-0.0454,-0.0454,-0.0455,-0.0456,-0.0557,-0.056,-0.0563,0,0,0,0,0,0,0,0,0,0,0,0,0,-0.0222,-0.015,-0.028,-0.033,-0.0335,-0.0381,-0.0382,-0.0384,-0.0453,-0.0454,-0.0455,-0.0456,-0.0556,-0.056,-0.0563,-0.0567,0,0,-0.0573,-0.0575,0,0,0,0,0,0,0,0,-0.0218,-0.0227,-0.0321,-0.0326,-0.0332,-0.0406,-0.0373,-0.0446,-0.0453,-0.0408,-0.0455,-0.0456,-0.0507,-0.0514,-0.0531,-0.0572,-0.0577,-0.0574,-0.0576,-0.0577,-0.0578,0,0,0,0,0,0,0,-0.0213,-0.0223,-0.032,-0.0322,-0.0329,-0.0346,-0.0358,-0.0387,-0.0452,-0.0412,-0.0418,-0.0429,-0.051,-0.0528,-0.0534,-0.0578,-0.0573,-0.0576,-0.0578,-0.058,-0.0628,-0.0627,0,0,0,0,0,0,-0.02,-0.0218,-0.0317,-0.0323,-0.0276,-0.0348,-0.0361,-0.0381,-0.0452,-0.0463,-0.0428,-0.0432,-0.0522,-0.053,-0.0538,-0.0548,-0.0577,-0.058,-0.0582,-0.0628,-0.0627,-0.0627,0,0,0,0,0,0,-0.0197,-0.0208,-0.0313,-0.0272,-0.0287,-0.035,-0.0372,-0.0383,-0.0401,-0.0463,-0.0475,-0.0435,-0.0523,-0.0533,-0.056,-0.0553,-0.0582,-0.0585,-0.0629,-0.0628,-0.0627,-0.0568,0,0,0,0,0,0,-0.0192,-0.0206,-0.0209,-0.0272,-0.0289,-0.0333,-0.0371,-0.0384,-0.0407,-0.0412,-0.0473,-0.0483,-0.0524,-0.0554,-0.0563,-0.0558,-0.0587,-0.063,-0.0629,-0.0627,-0.0571,-0.0565,-0.056,0,0,0,0,0,-0.0187,-0.0188,-0.0209,-0.022,-0.0294,-0.0332,-0.0342,-0.0389,-0.0406,-0.0409,-0.0449,-0.0482,-0.0552,-0.0556,-0.0567,-0.0563,-0.0631,-0.0629,-0.0627,-0.0573,-0.0566,-0.056,0,0,0,0,0,0,-0.0123,-0.0198,-0.0221,-0.0242,-0.028,-0.0344,-0.035,-0.038,-0.0414,-0.0418,-0.0475,-0.0488,-0.0508,-0.0538,-0.0542,-0.057,-0.0595,-0.0596,-0.0551,-0.0544,-0.0539,-0.0532,-0.059,0,0,0,0,0,-0.0111,-0.0137,-0.0201,-0.0213,-0.0231,-0.0287,-0.0305,-0.0338,-0.038,-0.0397,-0.0439,-0.0478,-0.0509,-0.0528,-0.056,-0.0575,-0.0589,-0.0577,-0.0572,-0.0567,-0.0567,-0.0577,-0.0573,-0.0621,-0.0621,-0.0621,0,0,-0.0088,-0.0131,-0.0144,-0.0201,-0.0235,-0.026,-0.03,-0.0325,-0.0344,-0.04,-0.0428,-0.046,-0.0507,-0.0528,-0.0539,-0.0553,-0.0556,-0.0565,-0.0561,-0.0563,-0.0575,-0.057,-0.0566,-0.062,-0.062,-0.062,0,0,-0.0058,-0.0093,-0.0108,-0.014,-0.019,-0.0227,-0.023,-0.0289,-0.0312,-0.0341,-0.0384,-0.0407,-0.0459,-0.0491,-0.0514,-0.0494,-0.0526,-0.0503,-0.0475,-0.0484,-0.048,-0.0477,-0.0471,-0.0468,-0.0502,-0.0502,-0.0502,0,-0.0022,-0.0062,-0.0111,-0.0133,-0.0157,-0.0209,-0.0224,-0.0253,-0.031,-0.0325,-0.034,-0.0406,-0.0442,-0.0471,-0.0466,-0.0483,-0.0488,-0.0497,-0.0477,-0.0474,-0.0472,-0.0466,-0.0464,-0.0499,-0.0499,-0.05,-0.05,0,-0.0015,-0.0042,-0.0048,-0.0102,-0.0126,-0.0145,-0.0196,-0.0215,-0.0245,-0.028,-0.0308,-0.0352,-0.0394,-0.0403,-0.0432,-0.0436,-0.0443,-0.0466,-0.0493,-0.0464,-0.0459,-0.0457,-0.0495,-0.0496,-0.0497,-0.0497,0,0,0.0051,-0.003,-0.0031,-0.0056,-0.0115,-0.0136,-0.0156,-0.0197,-0.0212,-0.0249,-0.0268,-0.031,-0.0332,-0.0358,-0.0392,-0.0399,-0.0381,-0.0422,-0.0424,-0.0414,-0.0388,-0.037,-0.0367,-0.0402,-0.0402,-0.0401,-0.0384,0,0.0072,0.0032,-0.0013,-0.0037,-0.0062,-0.0111,-0.0129,-0.0166,-0.0199,-0.0225,-0.0261,-0.029,-0.0317,-0.0333,-0.0342,-0.0381,-0.0377,-0.0383,-0.042,-0.0421,-0.0408,-0.0365,-0.0347,-0.0329,-0.0383,-0.0382,-0.0382,0,0.009,0.0055,0.0028,-0.0028,-0.004,-0.0055,-0.0096,-0.012,-0.0163,-0.0186,-0.0214,-0.025,-0.0273,-0.0295,-0.0328,-0.0331,-0.0349,-0.037,-0.037,-0.0377,-0.04,-0.0371,-0.0324,-0.0321,-0.038,-0.038,-0.038,0,0.014,0.0086,0.0063,0.0043,-0.0022,-0.0032,-0.0059,-0.0103,-0.0124,-0.0159,-0.0174,-0.0211,-0.0231,-0.0259,-0.0304,-0.0315,-0.0332,-0.0358,-0.0352,-0.0351,-0.0354,-0.0354,-0.031,-0.0364,-0.0364,-0.0364,-0.0364,0,0.0167,0.0152,0.0085,0.007,0.0053,0.0003,-0.0013,-0.0045,-0.0083,-0.0104,-0.0148,-0.0167,-0.0224,-0.0249,-0.0284,-0.0306,-0.0314,-0.0334,-0.0343,-0.0331,-0.0328,-0.0344,-0.0347,-0.0363,-0.0363,-0.0363,-0.0363,0,0.0219,0.0173,0.0145,0.0086,0.0071,0.0061,0.001,-0.0005,-0.004,-0.0066,-0.0075,-0.0129,-0.0161,-0.0208,-0.0254,-0.0277,-0.0294,-0.0308,-0.028,-0.0285,-0.0277,-0.0278,-0.0243,-0.0241,-0.0294,-0.0294,-0.0293,0,0.0238,0.0226,0.0166,0.0149,0.0123,0.0096,0.0074,0.0025,0.0004,-0.0046,-0.0055,-0.009,-0.0121,-0.017,-0.0213,-0.0248,-0.0265,-0.025,-0.027,-0.0257,-0.0265,-0.0264,-0.0266,-0.0246,-0.0245,-0.0244,-0.0244,0,0.0278,0.0256,0.0226,0.0188,0.0164,0.0132,0.0097,0.0086,0.003,0.0008,-0.0025,-0.0048,-0.0095,-0.013,-0.017,-0.0199,-0.023,-0.0236,-0.0237,-0.0225,-0.0208,-0.0218,-0.0267,-0.0237,-0.0238,-0.0239,-0.0239,-0.0239,0.0313,0.03,0.0256,0.0224,0.0194,0.0163,0.0146,0.011,0.0081,0.0039,0.0012,-0.0019,-0.0061,-0.012,-0.0146,-0.0171,-0.0185,-0.0185,-0.0186,-0.0186,-0.0181,-0.0203,-0.0179,-0.0179,-0.0179,-0.0179,-0.0179,0,0.035,0.0319,0.0291,0.0245,0.022,0.0193,0.0154,0.0135,0.0108,0.0072,0.0042,0.0005,-0.0029,-0.0074,-0.0111,-0.0122,-0.0137,-0.013,-0.013,-0.0136,-0.0167,-0.0163,-0.0117,-0.0117,-0.0117,-0.0117,-0.0117,-0.0117,0.0366,0.0342,0.0315,0.0276,0.0246,0.0214,0.0195,0.0167,0.0137,0.0097,0.0069,0.004,0.0,-0.0039,-0.0071,-0.0083,-0.0095,-0.0083,-0.01,-0.0128,-0.0134,-0.0139,-0.0136,-0.0085,-0.0085,-0.0067,-0.0067,-0.0067]}]]